Location: ?????
(55.6500°N, 37.2500°E)
Time: 03:46:25
(UTC+00:00)

NOSS 2-1 (D) - Pass Details

Date: 19 May 2025
Orbit: 378 x 1697 km, 63.3° (Epoch: 15 June)

Event Time Altitude Azimuth Distance (km) Brightness Sun altitude
Exits shadow 22:36:15 - 263° (W) 2,159 6.1 -13.0°
Reaches altitude 10° 22:38:02 10° 273° (W) 1,430 5.3 -12.9°
Maximum altitude 22:40:46 30° 338° (NNW) 720 4.5 -12.8°
Drops below altitude 10° 22:43:30 10° 43° (NE) 1,431 6.6 -12.7°
Sets 22:45:46 0° 55° (NE) 2,357 7.5 -12.6°
